When you browse on this site, cookies collect data to enhance your experience and personalize the content and advertising you see.
Visit our Privacy Policy to learn more. By continuing to use the site, you agree to this use of cookies and data.
  • în România
  • Lista ţărilor
  • Pe 7 zile
  • Temperatura apei
  • Hartă satelitară
  • Meteo pe hartă
  • Widget-uri
  • user-avatar
    Intrare

    Meteo pe oră la Armagh

    Astăzi, 20 Ianuarie, Duminică

    Timp Temperatura Precipitaţii Vânt Presiune Umiditate
    00:00 +5°C° 0 mm 1 m/s 753 mmHg 96%
    01:00 +4°C° 0 mm 0 m/s 753 mmHg 96%
    02:00 +3°C° 0 mm 0 m/s 754 mmHg 96%
    03:00 +3°C° 0 mm 0 m/s 754 mmHg 96%
    04:00 +4°C° 0.1 mm 1 m/s 755 mmHg 96%
    05:00 +4°C° 0.1 mm 1 m/s 755 mmHg 97%
    06:00 +4°C° 0 mm 1 m/s 756 mmHg 96%
    07:00 +5°C° 0.3 mm 1 m/s 757 mmHg 96%
    08:00 +5°C° 0.3 mm 2 m/s 758 mmHg 95%
    09:00 +4°C° 0.3 mm 3 m/s 758 mmHg 95%
    10:00 +5°C° 0 mm 4 m/s 759 mmHg 91%
    11:00 +5°C° 0 mm 5 m/s 760 mmHg 87%
    12:00 +5°C° 0 mm 5 m/s 761 mmHg 84%
    13:00 +5°C° 0 mm 4 m/s 761 mmHg 83%
    14:00 +5°C° 0 mm 4 m/s 761 mmHg 82%
    15:00 +5°C° 0 mm 4 m/s 762 mmHg 81%
    16:00 +4°C° 0 mm 3 m/s 762 mmHg 83%
    17:00 +2°C° 0 mm 3 m/s 763 mmHg 86%
    18:00 +2°C° 0 mm 2 m/s 763 mmHg 88%
    19:00 +2°C° 0 mm 2 m/s 764 mmHg 89%
    20:00 +1°C° 0 mm 2 m/s 764 mmHg 90%
    21:00 +2°C° 0 mm 1 m/s 764 mmHg 91%
    22:00 +2°C° 0 mm 1 m/s 764 mmHg 91%
    23:00 +2°C° 0 mm 1 m/s 764 mmHg 90%

    Mâine, 21 Ianuarie, Luni

    Timp Temperatura Precipitaţii Vânt Presiune Umiditate
    00:00 +1°C° 0 mm 1 m/s 764 mmHg 90%
    01:00 +1°C° 0 mm 1 m/s 764 mmHg 90%
    02:00 +1°C° 0 mm 1 m/s 763 mmHg 89%
    03:00 -1°C° 0 mm 2 m/s 763 mmHg 89%
    04:00 -1°C° 0 mm 2 m/s 762 mmHg 89%
    05:00 -1°C° 0 mm 2 m/s 762 mmHg 89%
    06:00 -1°C° 0 mm 2 m/s 761 mmHg 90%
    07:00 0°C° 0 mm 3 m/s 760 mmHg 89%
    08:00 0°C° 0 mm 3 m/s 760 mmHg 88%
    09:00 -1°C° 0 mm 4 m/s 759 mmHg 87%
    10:00 0°C° 0 mm 5 m/s 758 mmHg 83%
    11:00 +1°C° 0 mm 6 m/s 756 mmHg 79%
    12:00 +2°C° 0 mm 7 m/s 755 mmHg 76%
    13:00 +2°C° 0.4 mm 7 m/s 753 mmHg 79%
    14:00 +2°C° 0.4 mm 8 m/s 752 mmHg 83%
    15:00 +2°C° 0.4 mm 8 m/s 750 mmHg 87%
    16:00 +2°C° 1.1 mm 7 m/s 749 mmHg 86%
    17:00 +1°C° 1.1 mm 6 m/s 749 mmHg 86%
    18:00 +1°C° 1.1 mm 5 m/s 748 mmHg 86%
    19:00 +1°C° 0 mm 5 m/s 748 mmHg 86%
    20:00 -1°C° 0 mm 6 m/s 748 mmHg 86%
    21:00 -1°C° 0 mm 6 m/s 747 mmHg 86%
    22:00 -1°C° 0.1 mm 6 m/s 747 mmHg 86%
    23:00 0°C° 0.1 mm 5 m/s 747 mmHg 86%

    Poimâine, 22 Ianuarie, Marţi

    Timp Temperatura Precipitaţii Vânt Presiune Umiditate
    00:00 -1°C° 0.1 mm 5 m/s 747 mmHg 86%
    01:00 -1°C° 0 mm 5 m/s 747 mmHg 85%
    02:00 -1°C° 0 mm 5 m/s 746 mmHg 85%
    03:00 -1°C° 0 mm 5 m/s 746 mmHg 85%
    04:00 -1°C° 0 mm 5 m/s 746 mmHg 84%
    05:00 -2°C° 0 mm 5 m/s 746 mmHg 83%
    06:00 -2°C° 0 mm 5 m/s 746 mmHg 81%
    07:00 -2°C° 0 mm 5 m/s 746 mmHg 82%
    08:00 -2°C° 0 mm 4 m/s 746 mmHg 82%
    09:00 -2°C° 0 mm 4 m/s 746 mmHg 82%
    10:00 -1°C° 0 mm 4 m/s 746 mmHg 78%
    11:00 0°C° 0 mm 5 m/s 746 mmHg 75%
    12:00 0°C° 0 mm 5 m/s 746 mmHg 71%
    13:00 0°C° 0 mm 5 m/s 746 mmHg 71%
    14:00 +1°C° 0 mm 4 m/s 746 mmHg 71%
    15:00 +1°C° 0 mm 4 m/s 746 mmHg 72%
    16:00 0°C° 0 mm 3 m/s 746 mmHg 76%
    17:00 -1°C° 0 mm 3 m/s 746 mmHg 81%
    18:00 -2°C° 0 mm 2 m/s 747 mmHg 86%
    19:00 -2°C° 0 mm 2 m/s 747 mmHg 87%
    20:00 -2°C° 0 mm 2 m/s 747 mmHg 89%
    21:00 -2°C° 0 mm 2 m/s 747 mmHg 90%
    22:00 -2°C° 0 mm 2 m/s 747 mmHg 90%
    23:00 -2°C° 0 mm 2 m/s 748 mmHg 90%

    23 Ianuarie, Miercuri

    Timp Temperatura Precipitaţii Vânt Presiune Umiditate
    00:00 -2°C° 0 mm 2 m/s 748 mmHg 90%
    01:00 -2°C° 0 mm 2 m/s 748 mmHg 89%
    02:00 -2°C° 0 mm 2 m/s 748 mmHg 88%
    03:00 -1°C° 0 mm 2 m/s 748 mmHg 88%
    04:00 -1°C° 0 mm 2 m/s 748 mmHg 88%
    05:00 -1°C° 0 mm 2 m/s 749 mmHg 88%
    06:00 -1°C° 0 mm 2 m/s 749 mmHg 88%
    07:00 -1°C° 0 mm 2 m/s 749 mmHg 89%
    08:00 -1°C° 0 mm 2 m/s 750 mmHg 89%
    09:00 -1°C° 0 mm 2 m/s 751 mmHg 90%
    10:00 +2°C° 0 mm 2 m/s 751 mmHg 86%
    11:00 +3°C° 0 mm 2 m/s 751 mmHg 82%
    12:00 +4°C° 0 mm 2 m/s 751 mmHg 78%
    13:00 +4°C° 0 mm 2 m/s 751 mmHg 81%
    14:00 +5°C° 0 mm 2 m/s 751 mmHg 83%
    15:00 +5°C° 0 mm 2 m/s 751 mmHg 85%
    16:00 +4°C° 0 mm 2 m/s 751 mmHg 89%
    17:00 +3°C° 0 mm 2 m/s 752 mmHg 92%
    18:00 +2°C° 0 mm 2 m/s 752 mmHg 96%
    19:00 +3°C° 0.2 mm 2 m/s 752 mmHg 96%
    20:00 +2°C° 0.2 mm 3 m/s 752 mmHg 96%
    21:00 +3°C° 0.2 mm 3 m/s 752 mmHg 97%
    22:00 +3°C° 0.2 mm 3 m/s 752 mmHg 97%
    23:00 +3°C° 0.2 mm 3 m/s 752 mmHg 97%

    24 Ianuarie, Joi

    Timp Temperatura Precipitaţii Vânt Presiune Umiditate
    00:00 +4°C° 0.2 mm 3 m/s 752 mmHg 98%
    01:00 +5°C° 0.1 mm 3 m/s 752 mmHg 97%
    02:00 +5°C° 0.1 mm 3 m/s 752 mmHg 97%
    03:00 +7°C° 0.1 mm 3 m/s 752 mmHg 97%
    04:00 +7°C° 0.1 mm 3 m/s 752 mmHg 97%
    05:00 +7°C° 0.1 mm 3 m/s 752 mmHg 97%
    06:00 +7°C° 0.1 mm 3 m/s 752 mmHg 97%
    07:00 +8°C° 0.4 mm 3 m/s 752 mmHg 97%
    08:00 +7°C° 0.4 mm 4 m/s 753 mmHg 96%
    09:00 +8°C° 0.4 mm 4 m/s 753 mmHg 96%
    10:00 +8°C° 0 mm 5 m/s 753 mmHg 95%
    11:00 +8°C° 0 mm 5 m/s 754 mmHg 93%
    12:00 +8°C° 0 mm 6 m/s 754 mmHg 92%
    13:00 +8°C° 0 mm 5 m/s 754 mmHg 92%
    14:00 +8°C° 0 mm 5 m/s 754 mmHg 92%
    15:00 +8°C° 0 mm 4 m/s 755 mmHg 92%
    16:00 +8°C° 0 mm 4 m/s 755 mmHg 93%
    17:00 +7°C° 0 mm 4 m/s 755 mmHg 94%
    18:00 +7°C° 0 mm 4 m/s 756 mmHg 95%
    19:00 +7°C° 0 mm 4 m/s 756 mmHg 95%
    20:00 +7°C° 0 mm 4 m/s 756 mmHg 95%
    21:00 +7°C° 0 mm 4 m/s 756 mmHg 95%
    22:00 +7°C° 0 mm 4 m/s 756 mmHg 94%
    23:00 +7°C° 0 mm 4 m/s 756 mmHg 94%

    25 Ianuarie, Vineri

    Timp Temperatura Precipitaţii Vânt Presiune Umiditate
    00:00 +7°C° 0 mm 4 m/s 756 mmHg 94%
    01:00 +7°C° 0 mm 4 m/s 756 mmHg 95%
    02:00 +6°C° 0 mm 4 m/s 756 mmHg 95%
    03:00 +6°C° 0 mm 4 m/s 756 mmHg 96%
    04:00 +6°C° 0 mm 4 m/s 756 mmHg 96%
    05:00 +6°C° 0 mm 4 m/s 756 mmHg 95%
    06:00 +6°C° 0 mm 4 m/s 756 mmHg 95%
    07:00 +6°C° 0 mm 5 m/s 756 mmHg 95%
    08:00 +6°C° 0 mm 5 m/s 756 mmHg 95%
    09:00 +5°C° 0 mm 6 m/s 756 mmHg 95%
    10:00 +7°C° 0 mm 6 m/s 755 mmHg 94%
    11:00 +8°C° 0 mm 6 m/s 755 mmHg 94%
    12:00 +8°C° 0 mm 6 m/s 755 mmHg 93%
    13:00 +8°C° 0 mm 6 m/s 755 mmHg 93%
    14:00 +9°C° 0 mm 5 m/s 754 mmHg 93%
    15:00 +9°C° 0 mm 5 m/s 754 mmHg 93%
    16:00 +10°C° 0.2 mm 4 m/s 754 mmHg 94%
    17:00 +9°C° 0.2 mm 3 m/s 753 mmHg 95%
    18:00 +8°C° 0.2 mm 2 m/s 753 mmHg 96%
    19:00 +8°C° 0.6 mm 2 m/s 753 mmHg 97%
    20:00 +8°C° 0.6 mm 2 m/s 752 mmHg 97%
    21:00 +9°C° 0.6 mm 1 m/s 751 mmHg 98%
    22:00 +7°C° 2.4 mm 2 m/s 751 mmHg 96%
    23:00 +5°C° 2.4 mm 3 m/s 750 mmHg 95%
    Arată mai mult